Location: Unspecified
(0.0000°N, 0.0000°E)
Time: 02:15:41
(UTC+00:00)

Vanguard 2 Rocket - Pass Details

Date: 18 December 2018
Orbit: 554 x 3327 km, 32.9° (Epoch: 16 January)

Event Time Altitude Azimuth Distance (km) Brightness Sun altitude
Rises 22:00:04 0° 224° (SW) 7,257 12.1 -53.3°
Reaches altitude 10° 22:06:20 10° 214° (SW) 6,039 11.5 -54.4°
Enters shadow 22:20:49 31° 161° (SSE) 3,659 9.9 -57.0°
Maximum altitude 22:21:11 31° 159° (SSE) 3,629 - -57.0°
Drops below altitude 10° 22:31:12 10° 101° (E) 4,089 - -58.7°
Sets 22:34:24 0° 90° (E) 4,712 - -59.2°
